Flag for Norway Weather past 2 weeks in Halden, Norway

Now
58 °F

Cool.


Feels Like: 56 °F
Forecast: 48 / 59 °F
Wind: 8 mph from South

Location: Stromtangen Fyr

Current Time: Oct 2, 2014 at 6:34:58 AM

Latest Report: Oct 2, 2014 at 5:00 AM


Visibility: N/A

Pressure: 30.20 "Hg

Humidity: 90%

Dew point: 55 °F

Location of HaldenLocation

Historic Weather in Halden — Graph

°F

Halden temperature yesterday

Maximum temperature yesterday: 58 °F (at 1:00 PM)
Minimum temperature yesterday: 47 °F (at 8:00 AM)
Average temperature yesterday: 53 °F

Past Weeks' High & Low Weather Summary

 TemperatureHumidityPressure
High64 °F (Sep 18, 5:00 PM)91% (Oct 2, 3:00 AM)30.36 "Hg (Oct 2, 3:00 AM)
Low44 °F (Sep 23, 4:00 AM)37% (Sep 22, 3:00 PM)29.54 "Hg (Sep 25, 2:00 AM)
Average55 °F73%29.98 "Hg
* Reported Sep 17 5:00 AM — Oct 2 5:00 AM, Halden, Weather by CustomWeather, © 2014

Note: Actual official high and low records may vary slightly from our data, if they occured in-between our weather recording intervals... More about our weather records

Advertising

Halden weather history for previous 24 hours

 ConditionsComfort  
Time TempWeatherWind HumidityBarometerVisibility
5:00 AM
Oct 2
58 °FCool.8 mph90%30.20 "HgN/A
4:00 AM58 °FCool.9 mph91%30.20 "HgN/A
3:00 AM57 °FCool.12 mph91%30.20 "HgN/A
2:00 AM57 °FCool.12 mph89%30.20 "HgN/A
1:00 AM57 °FCool.13 mph88%30.20 "HgN/A
12:00 AM57 °FCool.13 mph88%30.21 "HgN/A
11:00 PM
Oct 1
57 °FCool.12 mph89%30.21 "HgN/A
10:00 PM55 °FCool.12 mph89%30.22 "HgN/A
9:00 PM54 °FCool.10 mph87%30.23 "HgN/A
8:00 PM54 °FCool.8 mph81%30.24 "HgN/A
7:00 PM54 °FCool.9 mph84%30.26 "HgN/A
6:00 PM56 °FCool.8 mph78%30.26 "HgN/A
5:00 PM57 °FCool.5 mph67%30.27 "HgN/A
4:00 PM57 °FCool.3 mph71%30.28 "HgN/A
3:00 PM58 °FCool.6 mph69%30.30 "HgN/A
2:00 PM58 °FCool.7 mph68%30.31 "HgN/A
1:00 PM58 °FCool.5 mph66%30.32 "HgN/A
12:00 PM56 °FCool.2 mph63%30.32 "HgN/A
11:00 AM53 °FCool.5 mph63%30.33 "HgN/A
10:00 AM51 °FCool.3 mph64%30.34 "HgN/A
9:00 AM49 °FCool.5 mph74%30.34 "HgN/A
8:00 AM47 °FCool.6 mph81%30.33 "HgN/A
7:00 AM49 °FCool.5 mph76%30.34 "HgN/A
6:00 AM49 °FCool.5 mph79%30.34 "HgN/A
Weather by CustomWeather, © 2014

See weather overviewHow to use our weather pages